Wind_Speed
32 32 32 31 31 32 34 34 35 34 33 31 29 29 29 31 31 30 31 32 32 33 34 35 34 35 34 34 34 34 34 34 34 34 34 34 34 34 35 35 35 35 35 36
32 31 32 32 31 31 32 32 33 33 33 32 33 32 31 32 32 31 31 32 33 33 34 34 34 34 34 34 34 34 35 35 35 35 35 35 35 35 36 36 35 35 36 36
31 31 31 31 30 30 30 30 31 32 32 31 32 33 33 32 32 32 31 31 32 33 34 34 34 34 33 33 34 35 35 35 36 36 36 36 36 36 36 36 36 36 37 37
30 29 30 29 28 28 28 28 28 29 29 30 30 32 33 33 32 31 31 31 32 33 33 34 35 34 34 34 34 35 36 36 37 36 37 37 36 36 36 36 37 37 38 38
29 29 29 28 27 27 28 28 28 29 29 29 29 30 31 31 31 31 31 32 33 34 34 34 35 35 34 34 34 35 36 36 36 37 36 36 36 36 37 37 38 38 39 39
27 27 27 27 26 26 27 28 28 29 29 29 30 30 30 30 30 30 31 32 33 34 34 34 35 35 35 35 34 34 35 35 35 35 35 35 36 36 36 37 38 39 39 40
26 27 27 27 27 27 28 28 28 29 30 30 30 30 30 30 31 32 32 32 33 33 34 34 35 35 36 35 35 35 34 34 35 35 35 35 35 36 36 36 37 37 38 38
24 25 25 25 27 28 28 28 28 28 28 29 29 29 30 30 30 31 32 32 32 33 33 34 35 35 36 36 35 35 35 35 36 35 35 35 35 35 35 35 36 36 36 37
24 24 24 25 26 27 28 29 29 30 30 30 30 29 29 30 30 31 32 32 33 33 34 35 35 36 37 37 36 36 36 36 36 35 35 35 35 35 35 35 36 36 37 37
24 24 24 25 26 26 27 28 29 30 30 30 30 31 31 30 30 30 31 32 32 33 34 35 35 36 37 38 37 36 35 35 35 35 35 35 35 35 36 37 37 37 38 38
25 24 25 26 26 25 26 27 28 29 29 29 30 30 30 31 30 30 31 31 32 32 32 33 34 34 35 36 36 35 35 34 35 35 35 35 35 36 36 36 37 37 37 37
24 24 25 25 26 25 24 25 26 27 27 27 28 28 29 29 30 30 30 30 31 31 31 31 31 31 32 33 34 34 34 34 34 35 35 35 36 36 36 36 36 37 37 37
22 22 23 22 23 24 24 24 24 25 26 27 27 27 27 28 28 28 29 29 29 29 29 29 29 30 31 32 32 33 33 33 34 34 35 35 35 35 35 35 36 36 36 36
21 22 22 22 22 22 23 23 23 23 24 25 25 26 27 27 27 27 27 27 27 27 27 28 28 29 29 30 31 32 31 31 32 32 33 34 34 34 34 34 35 35 35 34
20 20 21 21 21 22 22 22 22 22 23 23 24 25 25 25 25 25 26 26 26 26 26 26 27 28 28 28 29 29 29 29 30 30 31 31 32 32 32 33 33 33 34 34
19 19 20 21 21 21 22 22 22 22 23 24 24 24 24 24 24 24 25 25 25 25 26 26 26 26 26 27 27 28 28 29 29 29 29 29 30 31 31 31 31 32 32 33
19 20 20 21 21 21 22 22 22 22 22 23 23 24 23 23 24 24 24 25 25 25 26 26 26 27 27 26 26 27 27 28 28 27 27 27 28 28 29 29 30 30 31 32
20 21 21 21 21 21 21 21 22 22 23 23 23 23 23 24 23 23 23 24 24 25 26 26 26 26 26 25 25 26 26 26 26 27 27 27 28 28 28 29 29 30 31 31
21 21 21 21 21 21 21 21 22 22 23 23 23 24 24 24 24 23 23 23 23 24 25 25 25 25 24 25 24 24 25 25 25 26 26 27 27 27 28 28 29 30 30 31
20 20 21 22 21 21 22 22 22 22 22 23 23 23 24 24 24 23 23 23 23 23 24 24 24 24 24 24 24 24 25 25 25 26 26 27 27 28 29 29 29 30 30 30
20 21 21 21 21 21 22 22 22 22 22 23 23 23 23 23 23 23 23 24 24 24 24 24 24 24 24 24 24 24 25 25 26 26 27 27 28 29 29 30 30 29 29 29
20 21 20 20 20 20 20 20 20 20 20 21 21 21 21 22 23 23 24 24 25 25 24 24 24 24 24 24 24 24 25 25 26 27 27 28 29 29 29 29 29 29 28 28
19 19 19 18 19 19 18 18 18 18 18 19 19 20 21 22 22 23 24 24 24 24 24 24 24 24 24 25 25 25 26 26 27 27 27 28 28 28 28 27 27 27 27 27
18 17 17 17 17 17 18 18 18 18 18 18 19 19 20 21 22 22 23 23 23 24 24 24 25 25 25 25 25 26 26 26 26 26 26 26 26 26 26 26 26 26 25 25
16 16 16 17 17 17 18 18 18 18 18 18 18 19 19 20 20 21 22 22 22 23 23 24 24 24 24 24 25 25 25 26 25 25 25 25 25 25 24 24 23 23 24 24
15 16 16 16 16 16 16 16 16 17 17 17 17 18 18 18 19 20 20 21 21 22 22 22 22 23 23 23 24 24 24 24 24 24 24 24 23 23 23 23 23 23 23 23
15 15 14 14 14 14 14 14 14 15 15 16 16 16 17 17 18 19 19 20 20 21 21 22 22 23 23 23 24 24 24 24 23 23 23 23 22 22 22 23 23 23 23 23
Wind_Direction
268 268 265 263 262 260 257 256 257 258 257 256 255 254 254 255 257 258 257 258 258 258 258 257 257 256 257 258 257 258 259 260 260 262 263 263 263 262 261 260 260 259 259 259
266 266 265 263 262 261 259 258 258 257 257 256 254 254 254 255 256 256 256 257 258 258 259 259 258 258 259 259 259 259 259 260 261 263 263 264 263 262 261 260 260 260 261 261
265 265 265 263 260 259 259 259 259 259 258 257 254 254 255 255 255 255 255 255 256 256 257 258 259 259 260 259 260 260 260 261 261 262 263 264 263 261 260 260 259 260 261 262
265 264 263 262 261 259 260 260 261 261 260 259 257 255 256 256 257 255 254 254 255 256 256 257 258 258 258 259 260 261 261 262 262 263 263 263 262 260 261 261 260 261 262 263
264 263 262 260 259 258 259 259 260 260 260 259 258 255 256 255 256 256 255 255 256 256 257 258 259 258 257 258 260 261 262 263 264 264 264 264 263 261 262 262 262 263 264 264
264 265 264 261 260 259 258 258 257 258 258 259 258 258 258 259 258 257 257 258 258 258 258 259 259 258 258 259 260 261 262 263 264 264 264 264 263 262 262 263 263 264 265 266
266 266 265 263 261 260 259 259 259 259 259 259 260 261 261 262 261 261 261 260 260 260 260 260 260 259 259 259 260 262 263 263 264 264 264 263 263 262 263 263 264 265 266 266
269 266 264 264 263 260 260 260 260 260 260 260 260 261 262 262 263 262 262 262 262 262 261 261 261 261 261 260 261 263 264 264 264 263 263 263 262 263 264 265 266 266 267 267
270 268 265 264 263 262 261 260 260 260 259 259 259 260 261 262 263 264 263 264 265 266 265 264 264 263 263 262 262 264 264 264 263 262 262 263 263 263 265 267 268 268 268 269
270 268 266 264 263 264 262 261 260 259 259 260 260 261 262 264 265 265 266 267 268 268 268 267 265 265 264 264 264 264 264 264 263 262 262 263 264 265 265 267 268 270 270 271
270 270 268 267 266 266 266 264 262 261 259 259 260 261 262 264 265 266 268 268 269 269 269 268 267 266 265 265 265 265 264 263 263 263 262 263 264 265 266 267 268 270 271 271
275 271 269 268 267 266 268 266 264 262 261 261 262 262 262 262 264 266 267 268 269 269 269 268 267 266 266 266 266 266 265 264 264 264 264 264 265 265 265 266 268 269 270 271
276 274 273 274 271 267 266 267 267 265 263 263 263 263 263 264 266 266 265 266 267 268 268 268 268 269 269 268 267 267 267 266 266 266 266 267 266 266 266 266 268 269 270 271
278 277 276 275 272 270 267 266 267 265 264 263 264 264 265 264 265 266 265 265 266 267 268 268 269 270 270 269 268 267 267 266 267 267 268 268 267 267 267 267 267 268 270 271
278 276 276 276 274 272 271 270 268 266 265 265 264 264 264 264 265 266 266 265 266 266 267 268 269 270 271 270 267 266 266 266 266 268 268 268 268 268 268 268 268 268 269 270
278 277 276 275 274 272 273 274 272 269 266 266 265 265 264 264 264 264 265 265 265 264 266 267 269 270 271 270 267 266 265 265 266 267 267 268 268 268 268 269 269 270 270 271
280 279 277 275 274 272 273 273 271 269 268 268 266 265 265 265 264 264 264 264 263 264 265 266 268 270 270 270 268 267 266 266 265 265 266 267 269 269 270 270 270 270 271 271
283 280 279 279 276 274 272 271 271 270 269 269 268 267 266 265 266 266 265 264 265 266 266 268 270 271 271 271 271 270 269 267 266 266 266 267 268 269 270 271 271 272 273 273
285 282 281 280 277 275 272 271 272 272 272 270 269 268 268 267 267 267 267 268 268 270 270 270 272 272 272 273 273 272 270 269 268 268 269 269 269 270 272 272 273 274 274 274
288 285 283 281 279 277 275 274 274 273 273 272 271 270 268 268 268 268 268 269 270 271 273 273 273 272 272 273 273 273 272 271 270 271 272 271 271 271 272 273 274 275 275 276
289 288 287 283 281 280 279 278 277 276 274 273 271 270 269 268 267 267 267 268 270 270 271 273 273 273 272 273 273 274 274 273 273 273 274 274 273 273 274 274 274 275 276 277
291 290 288 286 283 282 282 280 279 278 277 275 272 271 269 269 268 267 267 268 268 269 270 272 272 272 273 272 272 273 275 275 275 276 277 276 276 275 275 274 274 274 275 276
294 292 289 288 286 284 282 281 281 279 279 278 276 274 273 271 270 270 270 270 269 269 270 270 270 272 272 272 272 274 276 277 278 279 279 278 276 276 275 273 274 274 275 276
296 293 290 287 285 284 282 282 281 280 280 280 279 278 276 275 274 273 271 271 271 270 270 270 270 271 272 273 274 275 276 277 279 280 280 278 276 276 274 274 274 275 276 276
298 296 294 290 288 287 286 284 283 282 282 283 283 282 281 279 278 277 276 275 274 273 273 272 272 272 272 273 274 275 276 278 279 280 279 278 276 276 275 274 274 275 275 277
297 296 295 293 291 290 290 289 286 285 285 286 286 285 284 283 282 280 279 278 277 276 275 274 273 273 274 275 275 276 277 278 280 281 281 279 277 275 274 273 273 275 276 278
295 296 297 297 296 294 294 293 292 291 290 291 290 290 288 286 285 283 282 282 280 279 277 275 275 276 276 277 277 278 278 278 279 280 280 280 279 277 275 274 274 275 276 277
Height
5575 5576 5576 5577 5578 5579 5579 5580 5581 5583 5584 5586 5587 5587 5588 5588 5589 5590 5591 5592 5593 5594 5595 5596 5597 5598 5600 5601 5602 5603 5604 5605 5606 5607 5607 5608 5608 5609 5610 5610 5611 5612 5613 5614
5565 5565 5565 5566 5568 5569 5570 5571 5571 5573 5574 5576 5576 5577 5578 5579 5580 5580 5581 5582 5583 5584 5585 5586 5587 5589 5590 5591 5592 5593 5594 5595 5596 5597 5597 5597 5598 5599 5600 5601 5601 5602 5603 5604
5556 5556 5555 5557 5559 5560 5560 5561 5562 5563 5566 5566 5567 5567 5568 5569 5570 5571 5572 5573 5574 5575 5576 5577 5578 5579 5580 5581 5582 5583 5584 5584 5585 5586 5587 5587 5588 5589 5590 5590 5591 5592 5593 5593
5545 5547 5546 5551 5551 5551 5551 5552 5553 5554 5555 5556 5557 5558 5559 5560 5560 5561 5562 5564 5565 5566 5567 5568 5569 5570 5571 5572 5572 5573 5573 5574 5575 5575 5576 5576 5577 5578 5579 5580 5580 5581 5582 5582
5537 5536 5537 5541 5542 5542 5543 5544 5545 5545 5546 5547 5548 5549 5549 5550 5551 5552 5553 5554 5555 5556 5557 5558 5559 5560 5561 5562 5562 5563 5563 5563 5564 5564 5565 5565 5566 5567 5568 5568 5569 5570 5570 5570
5529 5529 5530 5533 5533 5533 5534 5535 5536 5536 5537 5538 5539 5540 5542 5542 5542 5543 5544 5545 5545 5546 5547 5548 5549 5550 5551 5551 5552 5552 5553 5553 5553 5553 5554 5555 5555 5556 5557 5557 5558 5558 5559 5559
5521 5521 5522 5524 5524 5525 5527 5527 5527 5527 5528 5529 5530 5532 5533 5532 5533 5534 5534 5535 5536 5536 5537 5538 5538 5539 5540 5541 5541 5542 5542 5542 5542 5542 5543 5544 5544 5545 5546 5546 5546 5547 5547 5547
5514 5514 5517 5515 5515 5517 5517 5517 5518 5519 5519 5520 5521 5522 5523 5523 5523 5524 5525 5525 5526 5526 5527 5527 5528 5529 5530 5530 5531 5531 5531 5531 5531 5531 5532 5533 5534 5534 5534 5535 5535 5535 5536 5536
5507 5508 5507 5506 5506 5507 5507 5508 5509 5510 5511 5511 5512 5513 5513 5514 5514 5515 5515 5516 5516 5516 5517 5517 5517 5518 5519 5519 5519 5520 5520 5520 5520 5520 5521 5522 5523 5523 5524 5524 5524 5524 5524 5525
5499 5499 5498 5498 5498 5498 5498 5499 5500 5501 5502 5502 5503 5504 5504 5505 5505 5505 5505 5506 5506 5506 5506 5506 5506 5506 5507 5507 5508 5508 5508 5509 5509 5510 5510 5511 5511 5512 5512 5512 5512 5512 5513 5513
5490 5490 5490 5490 5490 5490 5490 5490 5491 5491 5492 5493 5493 5494 5495 5495 5495 5496 5496 5496 5496 5496 5496 5496 5496 5496 5496 5496 5496 5497 5497 5498 5498 5499 5499 5500 5500 5500 5500 5501 5500 5501 5501 5501
5483 5482 5482 5482 5481 5481 5481 5481 5482 5482 5483 5483 5484 5485 5485 5486 5486 5486 5486 5486 5486 5486 5486 5486 5486 5486 5486 5486 5486 5486 5487 5487 5488 5488 5488 5489 5489 5489 5489 5489 5489 5489 5489 5489
5474 5474 5473 5473 5473 5473 5473 5473 5473 5473 5474 5474 5475 5476 5476 5476 5476 5477 5477 5477 5477 5477 5477 5477 5477 5477 5476 5476 5476 5476 5476 5477 5477 5477 5477 5477 5478 5478 5478 5478 5478 5478 5478 5477
5467 5466 5466 5466 5465 5465 5465 5465 5465 5465 5465 5466 5466 5467 5467 5467 5467 5468 5468 5468 5468 5468 5468 5468 5468 5467 5467 5466 5466 5466 5466 5466 5466 5467 5467 5467 5467 5467 5467 5467 5467 5467 5467 5467
5460 5460 5459 5458 5458 5457 5457 5458 5458 5458 5458 5458 5458 5459 5459 5459 5459 5459 5459 5459 5459 5459 5459 5459 5459 5458 5458 5457 5457 5456 5456 5456 5456 5456 5456 5456 5456 5456 5456 5456 5457 5457 5457 5456
5454 5453 5453 5452 5451 5451 5450 5450 5451 5451 5451 5451 5451 5451 5451 5451 5451 5451 5451 5451 5451 5451 5451 5451 5450 5450 5449 5448 5448 5447 5447 5447 5447 5447 5447 5447 5446 5446 5446 5446 5446 5446 5446 5446
5448 5447 5446 5445 5444 5444 5443 5443 5443 5443 5443 5443 5443 5443 5443 5443 5443 5443 5443 5442 5442 5442 5442 5442 5442 5441 5440 5440 5439 5439 5438 5438 5438 5437 5437 5437 5437 5437 5437 5437 5436 5436 5436 5435
5442 5441 5439 5438 5438 5437 5436 5436 5436 5436 5436 5435 5435 5435 5435 5435 5435 5435 5435 5434 5434 5434 5434 5433 5433 5433 5432 5431 5431 5430 5430 5429 5429 5429 5429 5428 5428 5428 5428 5427 5427 5426 5426 5425
5435 5434 5433 5432 5431 5430 5430 5429 5429 5428 5428 5428 5428 5427 5427 5427 5427 5427 5427 5427 5426 5426 5426 5425 5425 5424 5424 5423 5422 5422 5421 5421 5421 5420 5420 5420 5419 5419 5418 5418 5417 5417 5416 5415
5429 5427 5426 5425 5424 5423 5423 5422 5422 5421 5421 5420 5420 5420 5419 5419 5419 5419 5419 5419 5419 5418 5418 5417 5417 5416 5416 5415 5415 5414 5413 5413 5413 5412 5412 5411 5410 5410 5409 5409 5408 5407 5406 5405
5423 5421 5419 5418 5417 5416 5415 5415 5414 5414 5413 5412 5412 5412 5412 5411 5411 5411 5411 5411 5411 5410 5410 5410 5409 5409 5408 5408 5407 5406 5406 5405 5405 5404 5403 5402 5402 5401 5400 5399 5399 5398 5397 5396
5416 5415 5413 5412 5411 5410 5408 5408 5407 5406 5405 5405 5404 5404 5404 5404 5404 5403 5403 5403 5403 5402 5402 5402 5401 5401 5400 5400 5399 5399 5398 5397 5396 5395 5394 5393 5392 5391 5391 5390 5389 5388 5388 5387
5410 5408 5407 5406 5404 5403 5402 5401 5400 5399 5398 5398 5397 5397 5396 5396 5396 5396 5396 5395 5395 5394 5394 5393 5393 5393 5392 5392 5391 5390 5390 5389 5388 5386 5385 5384 5383 5382 5381 5380 5380 5379 5378 5378
5405 5403 5401 5400 5398 5397 5396 5395 5394 5393 5392 5391 5390 5390 5389 5388 5388 5387 5387 5387 5386 5386 5385 5385 5385 5384 5384 5383 5382 5382 5381 5380 5379 5377 5376 5375 5374 5373 5372 5371 5371 5370 5369 5369
5399 5397 5396 5394 5393 5391 5390 5388 5387 5386 5385 5384 5383 5383 5382 5381 5381 5380 5379 5378 5378 5377 5377 5376 5376 5376 5375 5375 5374 5373 5372 5371 5370 5369 5367 5366 5365 5364 5363 5362 5362 5362 5361 5361
5394 5392 5390 5389 5387 5385 5384 5382 5381 5380 5379 5378 5377 5376 5375 5374 5373 5372 5371 5370 5370 5369 5369 5368 5368 5367 5367 5366 5365 5365 5364 5363 5362 5360 5359 5358 5357 5356 5355 5355 5354 5354 5353 5353
5389 5387 5385 5384 5382 5380 5379 5377 5376 5375 5374 5373 5371 5370 5369 5367 5366 5365 5364 5363 5362 5361 5360 5360 5359 5359 5358 5357 5357 5356 5355 5354 5353 5352 5351 5350 5349 5348 5347 5346 5346 5346 5345 5344